Find Starlink 35349

NORAD ID: 65835 Int'l Des: 2025-221 Owner: SPXS Country: US Constellation: starlink operational
LEOCIRCULAR

Live Position

Loading 3D Globe...

About Starlink 35349

Description loading...

Upcoming Passes

Passes for default location (London). Set your location on the main map for personalized predictions.

Altitude History

Loading altitude history...

Two-Line Element Set

1 65835U 25221N 26106.73822525 .00016197 00000-0 55763-3 0 9991
2 65835 53.1590 271.9776 0001196 81.7017 278.4119 15.30209545 30551
Epoch: Apr 16, 2026 • Age: 20 hours

Current Status

Altitude 475.1 km
Velocity 7.63 km/s
Sub-Earth Point 12.27°N, 34.53°E
Launch Date Sep 29, 2025
Age 0.5 years
Type internet

Technical Details

Classification Payload
Mass 575.00 kg
Dry Mass 530.00 kg
Total Mass 575.00 kg
Length 0.30 m
Diameter 4.10 m
Span 29.00 m
Shape Box + pan
Manufacturer SPXS
Bus Type Starlink V2MO
Phase Status In Orbit
Owner/State SPXS/US

Most Searched